SCP
0 0 0 0 0 0 0 0 0 0 0 0 0 0 0 0 0 0 0 0 0 0 0 0 0 0 0 0 0 0 0 0 0 0 0 0 0 0 0 0 0 0 0
0 0 0 0 0 0 0 0 0 0 0 0 0 0 0 0 0 0 0 0 0 0 0 0 0 0 0 0 0 0 0 0 0 0 0 0 0 0 0 0 0 0 0
0 0 0 0 0 0 0 0 0 0 0 0 0 0 0 0 0 0 0 0 0 0 0 0 0 0 0 0 0 0 0 0 0 0 0 0 0 0 0 0 0 0 0
0 0 0 0 0 0 0 0 0 0 0 0 0 0 0 0 0 0 0 0 0 0 0 0 0 0 0 0 0 0 0 0 0 0 0 0 0 0 0 0 0 0 0
0 0 0 0 0 0 0 0 0 0 0 0 0 0 0 0 0 0 0 0 0 0 0 0 0 0 0 0 0 0 0 0 0 0 0 0 0 0 0 0 0 0 0
0 0 0 0 0 0 0 0 0 0 0 0 0 0 0 0 0 0 0 0 0 0 0 0 0 0 0 0 0 0 0 0 0 0 0 0 0 0 0 0 0 0 0
0 0 0 0 0 0 0 0 0 0 0 0 0 0 0 0 0 0 0 0 0 0 0 0 0 0 0 0 0 0 0 0 0 0 0 0 0 0 0 0 0 0 0
0 0 0 0 0 0 0 0 0 0 0 0 0 -0 0 0 0 0 0 0 0 0 0 0 0 0 0 0 0 0 0 0 0 0 0 0 0 0 0 0 0 0 0
0 0 0 0 0 0 0 0 0 0 0 0 0 0 0 0 0 0 0 0 0 0 0 0 0 0 0 0 0 0 0 0 0 0 0 0 0 0 0 0 0 0 0
0 0 0 0 0 0 0 0 0 0 0 0 0 0 0 0 0 -0 0 0 0 0 0 0 0 0 0 0 0 0 0 0 0 0 0 0 0 0 0 0 0 0 0
0 0 0 0 0 0 0 0 0 0 0 0 0 0 0 0 0 0 0 0 0 0 0 0 0 0 0 0 -0 -0 -0 -0 0 0 0 0 0 0 0 0 0 0 0
0 0 0 0 0 0 0 0 0 0 0 0 0 0 0 0 0 0 0 0 0 0 0 0 -0 -0 -0 -0 -0 -0 -0 -0 -0 -0 0 0 0 0 0 0 0 0 0
0 0 0 0 0 0 0 0 0 0 0 0 0 0 0 0 0 0 0 0 0 -0 -0 -0 -0 -0 -0 -0 -0 -0 -0 -0 -0 -0 -0 -0 -0 -0 0 0 0 0 0
0 0 0 0 0 0 0 0 0 0 0 0 0 0 0 0 0 0 0 0 0 -0 -0 -0 -0 -0 -0 -0 -0 0 0 -0 -0 -0 -0 -0 -0 -0 -0 -0 -0 0 0
0 0 0 0 0 0 0 0 0 0 0 0 0 0 0 0 0 0 0 0 0 -0 -0 -0 0 -0 0 0 0 0 -0 -0 -0 -0 -0 -0 -0 -0 -0 -0 -0 -0 -0
0 0 0 0 0 0 0 0 0 0 0 0 0 0 0 0 0 0 0 0 0 0 0 0 0 0 0 0 0 0 0 -0 -0 -0 -0 -0 0 0 0 0 0 0 0
0 0 0 0 0 0 0 0 0 0 0 0 0 0 0 0 0 0 0 0 0 0 0 0 0 0 0 0 0 -0 0 0 0 -0 -0 0 0 0 0 0 0 0 0
0 0 0 0 0 0 0 0 0 0 0 0 0 0 0 0 0 0 0 0 0 0 0 0 0 0 0 0 0 0 0 0 0 0 0 0 0 0 0 0 0 0 0
0 0 0 0 0 0 0 0 0 0 0 0 0 0 0 0 0 0 0 0 0 0 0 0 0 0 0 0 0 0 0 0 0 0 0 0 0 0 0 0 0 0 0
0 0 0 0 0 0 0 0 0 0 0 0 0 0 0 0 0 0 0 0 0 0 0 0 0 0 0 0 0 0 0 0 0 0 0 0 0 0 0 0 0 0 0
0 0 0 0 0 0 0 0 0 0 0 0 0 0 0 0 0 0 0 0 0 0 0 0 0 0 0 0 0 0 0 0 0 0 0 0 0 0 0 0 0 0 0
0 0 0 0 0 0 0 0 0 0 0 0 0 0 0 0 0 0 0 0 0 0 0 0 0 0 0 0 0 0 0 0 0 0 0 0 0 0 0 0 0 0 0
0 0 0 0 0 0 0 0 0 0 0 0 0 0 0 0 0 0 0 0 0 0 0 0 0 0 0 0 0 0 0 0 0 0 0 0 0 0 0 0 0 0 0
0 0 0 0 0 0 0 0 0 0 0 0 0 0 0 0 0 0 0 0 0 0 0 0 0 0 0 0 0 0 0 0 0 0 0 0 0 0 0 0 0 0 0
0 0 0 0 0 0 0 0 0 0 0 0 0 0 0 0 0 0 0 0 0 0 0 0 0 0 0 0 0 0 0 0 0 0 0 0 0 0 0 0 0 0 0
0 0 0 0 0 0 0 0 0 0 0 0 0 0 0 0 0 0 0 0 0 0 0 0 0 0 0 0 0 0 0 0 0 0 0 0 0 0 0 0 0 0 0
Wind_Speed_500mb
32 30 27 25 24 24 24 24 22 23 25 26 28 27 26 27 26 25 24 27 28 28 30 29 31 31 30 31 32 34 36 38 41 47 51 53 51 46 43 41 41 46 49
38 35 32 31 29 27 26 26 26 27 28 28 28 27 26 24 24 25 26 26 28 29 30 28 26 23 20 21 25 29 32 35 40 40 46 58 56 53 49 47 46 45 50
44 41 37 35 31 29 29 29 31 31 29 29 29 27 25 24 23 20 18 18 18 20 24 24 18 13 16 17 18 21 25 26 30 40 48 47 60 62 60 53 50 47 46
49 44 41 37 34 32 31 31 31 30 30 31 29 29 28 26 23 19 17 10 8 10 13 11 13 22 21 21 27 28 27 30 32 34 41 46 49 57 64 66 62 55 50
54 50 46 43 39 36 35 34 34 33 34 34 34 33 33 29 22 12 2 5 17 13 14 17 19 24 30 26 39 41 41 42 38 36 35 37 44 49 56 67 71 68 62
58 55 53 49 43 40 37 36 35 35 37 40 41 40 37 32 20 5 11 28 15 19 23 16 16 22 33 41 46 50 49 48 49 47 43 41 43 47 52 55 65 72 76
65 61 58 54 47 42 40 38 35 34 35 38 43 42 36 19 12 3 38 13 30 20 17 19 30 37 43 51 53 51 51 53 53 52 53 51 51 48 49 53 56 62 74
70 67 63 57 51 48 45 40 35 35 35 34 35 41 21 28 7 44 18 35 15 39 30 38 47 52 55 53 54 56 53 54 54 55 56 58 59 57 55 57 58 60 61
75 71 66 62 57 53 48 41 37 35 35 34 31 22 13 12 53 19 41 27 49 40 48 51 53 51 53 57 54 55 55 56 58 58 59 61 63 66 66 64 65 66 62
79 75 71 66 60 56 52 46 40 37 36 35 32 29 28 30 27 33 42 52 49 57 59 58 58 63 60 59 58 58 59 63 63 68 67 66 66 69 72 72 73 74 74
82 78 75 69 67 62 57 52 44 40 38 36 33 31 33 34 35 34 61 68 68 65 68 71 75 70 71 65 65 65 74 80 80 81 81 79 78 75 75 76 77 81 82
85 83 79 75 70 66 61 53 47 44 39 37 36 37 37 35 37 35 46 66 71 76 77 78 75 77 74 72 77 79 87 88 90 91 92 92 91 87 85 85 83 82 83
91 92 85 80 76 70 63 57 53 47 41 38 38 40 40 40 41 44 50 62 67 82 81 84 77 82 76 84 84 95 97 98 97 97 99 100 99 100 99 97 93 89 90
86 84 82 80 75 71 66 62 57 50 44 41 41 42 42 43 44 42 47 53 74 70 81 58 77 80 73 95 98 99 101 105 104 103 104 106 108 108 107 106 104 98 86
85 81 77 79 77 74 69 64 58 51 47 45 45 45 45 46 46 43 43 46 49 55 78 60 66 80 100 103 102 103 105 105 108 110 111 113 113 113 112 110 106 100 92
83 79 77 80 80 76 71 66 62 56 51 49 48 47 46 45 46 45 44 46 50 59 83 85 99 107 109 112 108 107 110 113 114 113 113 115 113 111 102 98 96 89 91
82 77 75 78 82 79 74 71 65 59 55 51 50 48 47 47 46 47 47 50 56 61 86 122 103 112 118 114 113 113 114 116 121 119 116 111 109 105 96 93 92 93 92
86 76 72 76 80 79 78 74 68 63 57 53 50 50 47 46 46 48 52 54 60 64 76 109 121 116 115 117 119 117 118 118 122 120 117 94 90 89 96 95 93 93 94
90 80 76 79 83 85 82 77 70 65 60 55 52 50 47 46 49 50 51 56 62 68 74 90 123 115 117 115 117 117 121 121 113 96 92 92 88 88 89 91 90 90 88
92 86 82 80 83 84 82 78 73 68 63 55 50 49 46 47 49 51 53 56 62 67 72 83 102 120 111 103 97 106 114 100 106 102 104 98 95 98 95 90 93 95 97
91 86 80 79 85 87 86 82 76 66 60 53 49 49 46 47 49 51 53 55 59 63 69 81 93 104 110 99 94 101 107 111 116 99 112 102 101 106 102 95 85 75 75
89 83 82 84 86 90 87 82 72 64 58 53 50 46 49 46 51 49 49 48 48 54 63 73 83 92 115 100 106 107 109 107 127 104 97 107 95 111 107 100 88 91 94
87 86 86 85 87 89 84 79 71 64 58 53 48 51 47 55 51 51 53 55 53 53 57 66 84 92 109 105 106 115 109 112 124 124 105 127 104 111 104 109 95 92 94
87 87 85 83 85 81 78 72 67 63 56 49 51 48 54 47 43 47 52 55 59 63 68 69 81 91 95 100 96 106 114 117 123 116 78 107 106 111 103 110 104 92 90
83 84 84 84 85 79 79 72 67 58 49 49 52 46 47 38 42 44 46 53 61 72 74 65 71 77 77 83 89 96 109 95 111 120 86 92 110 107 102 107 105 97 89
79 82 84 84 80 77 79 74 67 56 51 56 45 47 40 35 36 38 37 52 67 70 69 71 79 84 87 83 76 66 76 90 95 112 73 78 94 90 104 97 90 84 71
Wind_Direction_500mb
234 236 238 247 254 262 274 286 296 303 308 313 315 311 305 301 301 296 289 286 287 284 282 285 284 284 286 285 283 277 276 274 266 256 250 244 244 247 247 252 259 262 261
234 236 242 249 255 263 271 278 286 291 297 307 313 315 312 305 301 298 297 293 286 284 284 281 284 292 311 317 310 305 298 289 281 270 256 248 246 245 247 248 250 254 261
234 235 239 244 248 258 266 274 281 288 298 308 320 323 319 313 306 300 299 297 298 292 283 282 289 296 313 326 335 343 341 321 288 276 273 269 259 252 247 248 251 251 255
234 237 242 245 250 257 265 274 281 290 297 303 316 326 322 317 315 316 307 302 315 313 308 314 309 313 320 319 338 324 321 313 311 304 292 285 273 262 253 250 248 249 251
234 236 241 245 250 256 263 272 280 288 295 303 313 322 326 322 318 319 98 342 329 319 311 309 308 312 318 315 322 319 316 318 316 306 299 286 281 274 266 255 250 249 250
234 237 238 241 245 252 260 267 275 286 294 303 309 318 325 322 317 298 336 327 334 329 319 306 310 314 314 308 309 310 310 310 304 304 303 298 288 280 276 269 261 252 249
235 237 239 243 245 251 258 265 274 284 295 302 307 310 321 314 301 273 334 344 332 346 323 322 316 313 312 308 308 308 308 302 300 302 301 300 299 296 284 275 268 261 253
235 237 238 241 243 246 252 259 269 280 289 301 312 323 327 320 245 316 302 325 330 335 322 318 319 318 315 313 311 310 310 308 310 307 306 301 298 296 294 285 276 266 261
235 237 238 239 241 244 248 254 264 276 288 298 308 318 322 305 315 308 309 317 325 326 320 318 319 321 318 318 318 315 316 316 314 313 310 308 303 299 295 291 286 277 270
234 236 238 239 241 244 248 253 257 266 277 286 295 301 301 298 310 309 305 309 316 318 320 322 324 323 325 324 321 322 323 323 320 316 312 307 304 301 298 295 290 285 277
237 237 238 239 241 243 246 249 253 261 269 278 285 290 293 295 292 287 299 310 313 319 321 324 324 324 324 321 321 324 326 324 319 317 316 314 309 304 299 295 291 287 283
238 238 237 238 239 241 244 247 251 257 264 272 279 283 285 288 291 288 287 300 307 315 318 319 319 319 322 322 324 326 323 321 319 317 315 312 310 307 303 297 292 284 281
237 237 236 236 236 238 240 243 248 253 260 267 274 279 284 287 289 290 294 301 305 309 317 316 317 319 321 320 320 323 320 318 314 312 313 311 308 306 304 299 293 287 280
243 243 240 239 237 237 237 239 244 248 253 262 269 275 279 281 283 288 293 301 308 311 315 316 318 318 316 314 317 317 314 312 311 311 309 306 304 302 300 297 293 287 281
244 243 241 242 239 237 237 239 241 244 249 255 261 266 270 276 281 285 291 297 300 304 307 311 302 312 309 310 313 314 311 307 306 306 305 304 302 299 296 293 289 285 281
243 242 240 240 237 236 237 238 239 241 247 254 259 261 266 273 278 283 288 292 295 297 293 298 299 306 307 309 312 311 308 306 305 304 303 302 299 297 294 290 285 281 278
244 243 238 236 234 236 237 238 239 242 246 250 258 260 264 270 276 283 288 292 294 297 296 301 301 305 305 308 309 309 307 308 307 307 307 304 298 294 291 287 283 279 276
244 243 239 235 234 236 238 237 239 243 246 250 255 259 265 271 278 283 289 292 295 295 295 298 302 304 306 308 309 309 310 307 306 309 309 300 294 291 290 285 280 276 274
243 241 237 235 236 235 235 237 239 242 245 249 252 257 264 272 277 283 287 293 295 295 296 297 300 303 304 307 310 309 310 308 304 298 295 294 291 288 287 282 278 274 271
242 240 238 236 235 234 235 236 237 241 244 247 251 257 264 271 279 285 290 294 295 296 297 298 298 302 305 306 303 305 304 299 296 295 294 289 288 288 288 283 277 270 268
241 238 235 234 233 233 233 233 235 238 244 248 252 257 266 273 282 287 292 296 296 297 299 300 298 299 298 300 300 300 294 298 295 294 295 290 291 294 290 291 281 271 264
238 235 232 231 233 232 232 233 235 238 241 245 249 258 266 276 280 287 292 290 284 287 290 291 289 287 292 297 298 295 293 294 294 296 293 289 286 285 284 283 280 270 273
234 230 228 229 231 233 232 234 237 237 240 244 250 258 269 272 281 291 290 289 291 288 283 286 285 284 291 295 296 296 293 291 288 290 290 287 285 280 279 282 279 274 271
228 227 227 227 230 231 233 235 237 239 239 246 256 262 265 272 282 286 294 299 301 302 301 297 292 291 288 295 293 291 293 292 288 284 288 285 288 283 282 282 286 280 276
224 225 225 227 227 226 230 233 236 238 242 252 254 260 265 277 284 291 296 301 301 297 298 292 288 288 290 289 290 287 284 288 287 288 287 279 283 283 282 281 283 279 276
227 225 223 224 226 223 225 228 233 233 242 247 253 257 268 283 291 294 301 293 292 301 304 308 301 302 304 305 310 293 287 285 286 290 292 280 281 284 286 280 281 280 282
Wind_Speed_850mb
32 30 27 25 24 24 24 24 22 23 25 26 28 27 26 27 26 25 24 27 28 28 30 29 31 31 30 31 32 34 36 38 41 47 51 53 51 46 43 41 41 46 49
38 35 32 31 29 27 26 26 26 27 28 28 28 27 26 24 24 25 26 26 28 29 30 28 26 23 20 21 25 29 32 35 40 40 46 58 56 53 49 47 46 45 50
44 41 37 35 31 29 29 29 31 31 29 29 29 27 25 24 23 20 18 18 18 20 24 24 18 13 16 17 18 21 25 26 30 40 48 47 60 62 60 53 50 47 46
49 44 41 37 34 32 31 31 31 30 30 31 29 29 28 26 23 19 17 10 8 10 13 11 13 22 21 21 27 28 27 30 32 34 41 46 49 57 64 66 62 55 50
54 50 46 43 39 36 35 34 34 33 34 34 34 33 33 29 22 12 2 5 17 13 14 17 19 24 30 26 39 41 41 42 38 36 35 37 44 49 56 67 71 68 62
58 55 53 49 43 40 37 36 35 35 37 40 41 40 37 32 20 5 11 28 15 19 23 16 16 22 33 41 46 50 49 48 49 47 43 41 43 47 52 55 65 72 76
65 61 58 54 47 42 40 38 35 34 35 38 43 42 36 19 12 3 38 13 30 20 17 19 30 37 43 51 53 51 51 53 53 52 53 51 51 48 49 53 56 62 74
70 67 63 57 51 48 45 40 35 35 35 34 35 41 21 28 7 44 18 35 15 39 30 38 47 52 55 53 54 56 53 54 54 55 56 58 59 57 55 57 58 60 61
75 71 66 62 57 53 48 41 37 35 35 34 31 22 13 12 53 19 41 27 49 40 48 51 53 51 53 57 54 55 55 56 58 58 59 61 63 66 66 64 65 66 62
79 75 71 66 60 56 52 46 40 37 36 35 32 29 28 30 27 33 42 52 49 57 59 58 58 63 60 59 58 58 59 63 63 68 67 66 66 69 72 72 73 74 74
82 78 75 69 67 62 57 52 44 40 38 36 33 31 33 34 35 34 61 68 68 65 68 71 75 70 71 65 65 65 74 80 80 81 81 79 78 75 75 76 77 81 82
85 83 79 75 70 66 61 53 47 44 39 37 36 37 37 35 37 35 46 66 71 76 77 78 75 77 74 72 77 79 87 88 90 91 92 92 91 87 85 85 83 82 83
91 92 85 80 76 70 63 57 53 47 41 38 38 40 40 40 41 44 50 62 67 82 81 84 77 82 76 84 84 95 97 98 97 97 99 100 99 100 99 97 93 89 90
86 84 82 80 75 71 66 62 57 50 44 41 41 42 42 43 44 42 47 53 74 70 81 58 77 80 73 95 98 99 101 105 104 103 104 106 108 108 107 106 104 98 86
85 81 77 79 77 74 69 64 58 51 47 45 45 45 45 46 46 43 43 46 49 55 78 60 66 80 100 103 102 103 105 105 108 110 111 113 113 113 112 110 106 100 92
83 79 77 80 80 76 71 66 62 56 51 49 48 47 46 45 46 45 44 46 50 59 83 85 99 107 109 112 108 107 110 113 114 113 113 115 113 111 102 98 96 89 91
82 77 75 78 82 79 74 71 65 59 55 51 50 48 47 47 46 47 47 50 56 61 86 122 103 112 118 114 113 113 114 116 121 119 116 111 109 105 96 93 92 93 92
86 76 72 76 80 79 78 74 68 63 57 53 50 50 47 46 46 48 52 54 60 64 76 109 121 116 115 117 119 117 118 118 122 120 117 94 90 89 96 95 93 93 94
90 80 76 79 83 85 82 77 70 65 60 55 52 50 47 46 49 50 51 56 62 68 74 90 123 115 117 115 117 117 121 121 113 96 92 92 88 88 89 91 90 90 88
92 86 82 80 83 84 82 78 73 68 63 55 50 49 46 47 49 51 53 56 62 67 72 83 102 120 111 103 97 106 114 100 106 102 104 98 95 98 95 90 93 95 97
91 86 80 79 85 87 86 82 76 66 60 53 49 49 46 47 49 51 53 55 59 63 69 81 93 104 110 99 94 101 107 111 116 99 112 102 101 106 102 95 85 75 75
89 83 82 84 86 90 87 82 72 64 58 53 50 46 49 46 51 49 49 48 48 54 63 73 83 92 115 100 106 107 109 107 127 104 97 107 95 111 107 100 88 91 94
87 86 86 85 87 89 84 79 71 64 58 53 48 51 47 55 51 51 53 55 53 53 57 66 84 92 109 105 106 115 109 112 124 124 105 127 104 111 104 109 95 92 94
87 87 85 83 85 81 78 72 67 63 56 49 51 48 54 47 43 47 52 55 59 63 68 69 81 91 95 100 96 106 114 117 123 116 78 107 106 111 103 110 104 92 90
83 84 84 84 85 79 79 72 67 58 49 49 52 46 47 38 42 44 46 53 61 72 74 65 71 77 77 83 89 96 109 95 111 120 86 92 110 107 102 107 105 97 89
79 82 84 84 80 77 79 74 67 56 51 56 45 47 40 35 36 38 37 52 67 70 69 71 79 84 87 83 76 66 76 90 95 112 73 78 94 90 104 97 90 84 71
Wind_Direction_850mb
234 236 238 247 254 262 274 286 296 303 308 313 315 311 305 301 301 296 289 286 287 284 282 285 284 284 286 285 283 277 276 274 266 256 250 244 244 247 247 252 259 262 261
234 236 242 249 255 263 271 278 286 291 297 307 313 315 312 305 301 298 297 293 286 284 284 281 284 292 311 317 310 305 298 289 281 270 256 248 246 245 247 248 250 254 261
234 235 239 244 248 258 266 274 281 288 298 308 320 323 319 313 306 300 299 297 298 292 283 282 289 296 313 326 335 343 341 321 288 276 273 269 259 252 247 248 251 251 255
234 237 242 245 250 257 265 274 281 290 297 303 316 326 322 317 315 316 307 302 315 313 308 314 309 313 320 319 338 324 321 313 311 304 292 285 273 262 253 250 248 249 251
234 236 241 245 250 256 263 272 280 288 295 303 313 322 326 322 318 319 98 342 329 319 311 309 308 312 318 315 322 319 316 318 316 306 299 286 281 274 266 255 250 249 250
234 237 238 241 245 252 260 267 275 286 294 303 309 318 325 322 317 298 336 327 334 329 319 306 310 314 314 308 309 310 310 310 304 304 303 298 288 280 276 269 261 252 249
235 237 239 243 245 251 258 265 274 284 295 302 307 310 321 314 301 273 334 344 332 346 323 322 316 313 312 308 308 308 308 302 300 302 301 300 299 296 284 275 268 261 253
235 237 238 241 243 246 252 259 269 280 289 301 312 323 327 320 245 316 302 325 330 335 322 318 319 318 315 313 311 310 310 308 310 307 306 301 298 296 294 285 276 266 261
235 237 238 239 241 244 248 254 264 276 288 298 308 318 322 305 315 308 309 317 325 326 320 318 319 321 318 318 318 315 316 316 314 313 310 308 303 299 295 291 286 277 270
234 236 238 239 241 244 248 253 257 266 277 286 295 301 301 298 310 309 305 309 316 318 320 322 324 323 325 324 321 322 323 323 320 316 312 307 304 301 298 295 290 285 277
237 237 238 239 241 243 246 249 253 261 269 278 285 290 293 295 292 287 299 310 313 319 321 324 324 324 324 321 321 324 326 324 319 317 316 314 309 304 299 295 291 287 283
238 238 237 238 239 241 244 247 251 257 264 272 279 283 285 288 291 288 287 300 307 315 318 319 319 319 322 322 324 326 323 321 319 317 315 312 310 307 303 297 292 284 281
237 237 236 236 236 238 240 243 248 253 260 267 274 279 284 287 289 290 294 301 305 309 317 316 317 319 321 320 320 323 320 318 314 312 313 311 308 306 304 299 293 287 280
243 243 240 239 237 237 237 239 244 248 253 262 269 275 279 281 283 288 293 301 308 311 315 316 318 318 316 314 317 317 314 312 311 311 309 306 304 302 300 297 293 287 281
244 243 241 242 239 237 237 239 241 244 249 255 261 266 270 276 281 285 291 297 300 304 307 311 302 312 309 310 313 314 311 307 306 306 305 304 302 299 296 293 289 285 281
243 242 240 240 237 236 237 238 239 241 247 254 259 261 266 273 278 283 288 292 295 297 293 298 299 306 307 309 312 311 308 306 305 304 303 302 299 297 294 290 285 281 278
244 243 238 236 234 236 237 238 239 242 246 250 258 260 264 270 276 283 288 292 294 297 296 301 301 305 305 308 309 309 307 308 307 307 307 304 298 294 291 287 283 279 276
244 243 239 235 234 236 238 237 239 243 246 250 255 259 265 271 278 283 289 292 295 295 295 298 302 304 306 308 309 309 310 307 306 309 309 300 294 291 290 285 280 276 274
243 241 237 235 236 235 235 237 239 242 245 249 252 257 264 272 277 283 287 293 295 295 296 297 300 303 304 307 310 309 310 308 304 298 295 294 291 288 287 282 278 274 271
242 240 238 236 235 234 235 236 237 241 244 247 251 257 264 271 279 285 290 294 295 296 297 298 298 302 305 306 303 305 304 299 296 295 294 289 288 288 288 283 277 270 268
241 238 235 234 233 233 233 233 235 238 244 248 252 257 266 273 282 287 292 296 296 297 299 300 298 299 298 300 300 300 294 298 295 294 295 290 291 294 290 291 281 271 264
238 235 232 231 233 232 232 233 235 238 241 245 249 258 266 276 280 287 292 290 284 287 290 291 289 287 292 297 298 295 293 294 294 296 293 289 286 285 284 283 280 270 273
234 230 228 229 231 233 232 234 237 237 240 244 250 258 269 272 281 291 290 289 291 288 283 286 285 284 291 295 296 296 293 291 288 290 290 287 285 280 279 282 279 274 271
228 227 227 227 230 231 233 235 237 239 239 246 256 262 265 272 282 286 294 299 301 302 301 297 292 291 288 295 293 291 293 292 288 284 288 285 288 283 282 282 286 280 276
224 225 225 227 227 226 230 233 236 238 242 252 254 260 265 277 284 291 296 301 301 297 298 292 288 288 290 289 290 287 284 288 287 288 287 279 283 283 282 281 283 279 276
227 225 223 224 226 223 225 228 233 233 242 247 253 257 268 283 291 294 301 293 292 301 304 308 301 302 304 305 310 293 287 285 286 290 292 280 281 284 286 280 281 280 282